RH
97 95 95 95 95 94 94 92 95 94 96 92 90 92 90 85 82 87 68 78 73 72 61 58 55 52 49 44 42 38 51 52 45 39 34 26 28 24 23 27 26 24 21 17 16
95 94 94 94 94 92 93 91 87 86 84 86 79 84 85 86 71 59 71 75 86 80 56 59 52 50 46 44 45 52 49 43 33 33 37 36 39 41 37 31 29 27 22 20 18
94 93 94 94 94 93 95 87 80 82 88 86 77 81 78 90 57 75 86 81 91 78 59 65 51 53 55 45 51 57 63 44 40 36 38 43 42 41 49 52 38 32 30 24 24
94 95 94 97 98 98 94 88 85 94 90 78 78 90 87 82 59 77 93 81 70 64 60 58 56 59 65 68 59 79 51 44 45 42 48 52 44 50 48 47 36 33 31 27 28
95 95 97 94 97 95 94 91 89 91 84 86 87 88 79 55 57 71 70 67 62 62 59 54 57 54 69 63 56 60 50 48 46 43 42 40 46 47 43 37 35 36 36 35 29
95 95 95 98 97 95 92 94 95 85 78 92 92 80 65 53 60 60 62 62 57 52 50 47 43 41 49 49 52 47 51 50 43 36 29 33 40 47 39 28 32 36 35 36 38
95 95 96 98 96 83 92 92 96 87 76 92 83 77 58 59 60 48 55 47 48 46 37 40 40 43 51 55 49 53 56 37 26 24 27 36 43 36 24 31 46 48 46 40 37
96 91 85 84 70 66 69 81 82 79 77 88 82 74 67 65 47 43 41 41 44 43 41 43 43 43 52 45 45 45 42 36 22 24 26 30 63 34 25 28 36 40 41 46 40
94 69 63 69 64 60 62 78 72 69 77 80 73 62 60 52 46 50 42 38 39 41 42 42 42 45 44 49 44 40 38 33 29 23 27 32 46 28 22 21 24 28 26 28 33
75 62 59 70 64 54 57 71 58 62 61 57 56 45 42 39 43 47 46 43 33 36 36 41 46 47 43 40 38 40 40 35 36 26 24 32 32 20 14 15 20 22 24 26 28
62 60 59 70 69 53 60 66 49 48 40 42 39 35 32 33 44 34 35 40 36 35 32 37 37 31 28 31 31 31 34 37 24 22 25 23 18 15 16 20 24 25 27 30 36
68 55 58 68 74 52 57 54 74 85 55 38 34 34 39 39 31 28 38 36 31 27 28 30 26 25 26 28 30 26 26 25 23 18 17 16 17 13 17 25 26 31 40 57 60
73 64 56 69 71 69 74 80 85 76 70 39 31 30 32 36 31 28 27 26 29 28 25 28 23 23 29 26 26 23 23 23 25 21 16 12 14 13 13 19 26 30 35 40 44
77 74 57 68 79 73 72 83 83 81 80 41 32 31 34 35 39 28 26 26 30 31 27 25 22 27 27 28 24 28 19 24 24 25 26 14 26 15 12 15 25 29 29 32 37
79 75 65 60 63 59 75 82 84 78 97 33 32 32 28 36 32 31 28 28 33 28 28 24 25 28 30 26 25 28 23 26 25 25 22 19 22 18 13 16 22 27 26 26 29
74 78 67 71 70 79 82 86 79 84 89 39 34 36 34 32 33 32 32 28 26 32 28 30 24 30 27 24 24 23 26 22 22 22 47 29 24 22 13 26 23 23 22 22 25
77 73 74 79 67 82 82 69 96 98 38 42 40 40 39 35 33 28 28 29 30 40 34 26 24 22 23 28 22 30 29 55 49 49 59 19 23 18 11 21 23 23 18 18 25
80 74 81 83 86 82 68 71 100 36 33 46 45 42 48 36 31 33 34 34 30 30 40 44 33 24 26 29 31 29 33 53 56 50 33 20 26 16 16 23 20 18 13 18 24
72 78 80 83 86 78 58 95 58 38 48 49 36 46 36 37 41 43 35 33 32 32 50 57 43 26 27 26 29 33 43 40 51 35 41 30 18 13 10 14 10 20 15 18 22
64 73 72 83 84 64 86 75 39 45 55 53 47 37 49 37 46 64 44 29 32 32 39 50 64 31 29 32 30 35 27 50 69 83 54 27 20 15 10 10 15 19 17 19 23
71 74 80 81 79 64 96 57 43 43 53 59 48 46 42 58 62 56 64 39 30 38 42 66 62 40 36 38 37 42 54 50 63 61 61 50 24 10 16 15 19 18 20 20 30
67 99 85 77 92 81 71 50 67 49 52 60 64 59 50 46 73 62 55 45 30 36 49 45 83 72 46 30 35 37 58 66 70 60 72 56 41 17 15 15 15 21 23 23 28
91 87 78 75 99 96 78 60 54 55 54 59 60 54 51 57 77 61 55 42 41 45 52 56 70 75 44 45 44 56 41 64 64 59 66 60 42 17 16 16 15 25 27 29 28
96 100 91 88 66 68 78 75 64 52 56 51 56 55 60 66 52 67 58 47 42 43 42 55 77 70 70 61 65 80 71 51 60 73 48 43 38 26 18 17 19 26 27 28 26
99 94 71 99 89 84 90 94 70 72 58 60 72 63 65 83 58 53 45 43 40 43 52 73 87 62 56 65 67 62 69 75 83 72 82 53 45 36 31 24 21 27 27 24 24
99 99 89 91 77 93 92 87 73 66 72 69 71 46 48 76 57 59 51 55 76 54 82 88 82 58 59 43 40 52 43 46 68 56 61 57 56 36 27 22 27 30 26 26 26
93 90 93 95 99 96 84 72 72 63 64 50 46 54 56 47 42 45 47 50 52 82 90 85 73 77 78 40 44 59 33 33 33 36 50 65 55 30 27 25 30 34 32 30 26
Wind_Speed
22 22 22 22 21 21 20 19 18 18 17 16 16 14 14 12 9 4 10 4 2 3 3 2 4 4 4 4 5 7 7 12 17 19 20 19 24 22 23 27 25 25 26 26 24
23 24 24 25 24 22 21 19 18 18 16 15 15 13 12 4 6 6 8 7 7 3 3 4 3 5 5 5 3 7 11 14 17 19 23 25 25 26 27 26 27 28 27 32 29
24 25 25 26 25 22 21 18 17 16 14 14 15 14 9 4 10 6 13 9 7 3 2 1 2 4 7 9 7 5 14 18 20 23 24 27 25 23 25 27 28 28 29 29 25
24 25 25 26 25 23 19 16 14 13 14 13 12 8 2 6 0 6 9 9 5 4 4 2 1 4 4 4 5 7 16 19 22 22 22 24 24 25 24 29 30 32 32 31 28
24 25 25 26 24 22 17 14 12 13 13 12 9 1 3 5 6 3 3 4 3 2 2 2 6 7 6 4 10 17 17 14 17 20 19 23 23 26 29 31 28 31 31 33 25
24 25 25 25 23 20 17 13 12 12 11 11 6 5 5 4 3 2 2 5 2 2 2 4 5 6 10 10 9 11 15 19 20 20 19 18 14 18 23 28 26 23 30 23 29
23 23 25 23 21 19 17 14 12 9 7 9 11 8 3 7 1 3 1 2 1 2 3 3 4 4 2 7 8 12 16 16 11 9 15 13 18 19 22 16 17 16 20 25 28
23 25 26 23 20 20 18 13 7 5 3 4 7 2 4 1 2 3 1 3 2 2 1 2 1 3 2 7 11 9 8 10 15 13 14 14 20 21 22 19 19 20 15 19 25
22 25 27 22 18 21 16 7 6 4 5 3 2 5 4 3 2 2 2 2 1 1 2 2 3 3 4 6 8 7 11 17 15 15 16 13 24 26 23 21 20 18 18 19 17
22 25 26 22 15 20 12 2 6 5 2 1 1 4 4 2 1 1 1 3 4 2 4 3 1 3 4 4 7 12 14 14 19 17 18 19 21 23 22 18 17 16 17 17 17
21 24 26 22 13 17 10 3 4 4 6 5 4 3 4 2 2 2 1 4 5 6 5 3 7 4 5 3 8 11 14 17 17 16 15 20 20 21 13 13 14 15 15 14 15
22 23 25 20 7 14 10 5 5 3 1 2 2 1 1 2 3 4 2 4 5 5 4 7 9 4 4 7 11 15 17 16 16 15 17 19 17 14 7 10 13 17 17 14 19
22 22 23 13 5 13 17 8 3 2 4 3 1 2 2 3 1 2 4 1 6 6 6 8 10 1 7 10 14 16 15 13 17 18 21 14 14 7 3 7 11 14 15 16 15
20 20 19 9 1 3 5 4 5 2 3 6 4 2 2 3 3 2 2 4 4 7 8 8 3 4 10 14 13 15 8 12 17 14 12 17 15 17 12 5 11 14 16 15 16
19 17 17 9 4 3 5 7 4 3 1 4 4 2 2 4 5 5 1 3 8 10 5 3 6 10 13 12 7 11 11 14 18 17 19 18 13 13 14 4 10 12 14 16 15
16 17 13 6 2 3 8 5 3 1 1 3 1 1 5 4 3 1 4 5 8 9 10 16 11 7 9 8 10 12 14 16 19 13 11 16 9 12 14 6 10 11 13 16 18
15 16 8 4 3 9 7 3 2 0 2 3 1 2 5 5 4 4 6 9 7 6 6 7 13 6 5 9 8 8 12 8 6 6 10 13 9 14 21 3 8 11 13 16 17
14 13 5 1 6 9 3 2 1 1 3 1 3 7 6 1 4 4 6 10 6 7 7 5 2 6 6 6 8 14 9 7 13 14 15 18 15 11 4 5 8 10 15 16 17
12 6 1 2 7 6 3 0 3 4 3 5 10 6 5 5 5 5 8 11 2 6 3 3 6 2 6 9 6 3 7 8 11 17 15 14 19 11 14 8 10 16 19 18 20
8 7 2 5 7 3 1 2 2 2 2 2 5 2 4 3 4 1 4 4 3 4 2 3 8 11 1 5 13 13 8 7 5 5 14 12 18 13 10 15 14 18 20 20 19
4 3 1 8 3 1 1 2 3 1 3 4 5 7 8 4 3 4 6 2 3 4 4 2 5 3 5 7 11 8 9 7 5 6 12 15 9 11 18 16 10 17 20 18 15
2 3 3 4 2 1 1 2 2 3 5 6 5 11 13 7 5 6 7 5 1 2 5 4 3 9 16 14 3 9 11 8 7 13 7 12 13 18 13 5 11 17 18 16 13
2 3 2 2 2 2 2 3 4 4 6 4 5 7 2 4 4 11 8 3 4 5 3 2 4 7 7 2 1 6 10 9 10 11 17 15 13 16 10 13 15 14 15 13 14
2 2 1 1 1 3 1 3 4 5 7 6 8 6 7 8 11 7 6 5 5 9 9 2 6 13 14 16 8 7 10 12 13 10 18 18 22 22 21 17 16 13 12 14 14
1 3 1 2 4 3 3 1 6 5 5 4 5 13 9 5 9 16 16 13 12 15 14 5 12 17 18 21 20 21 17 15 16 20 19 24 26 27 23 22 16 12 11 12 14
4 3 0 1 4 6 6 6 8 5 5 6 10 7 10 12 14 18 13 11 13 9 1 2 13 17 22 22 23 24 24 19 21 23 24 26 26 27 23 12 9 10 10 11 13
6 3 3 4 4 5 5 6 5 4 9 13 8 9 12 13 13 14 15 16 17 9 7 7 9 10 19 19 15 15 18 19 19 18 18 19 23 19 17 13 10 8 10 12 13
Wind_Direction
351 348 345 342 340 336 332 329 329 329 325 327 326 320 311 298 294 256 273 306 194 220 111 307 312 317 278 251 269 265 259 262 271 285 298 308 297 290 291 284 281 275 278 281 286
351 348 344 341 337 332 326 325 324 323 323 322 320 314 307 311 247 254 332 275 181 155 233 331 330 327 280 262 263 243 265 274 297 310 310 314 313 315 304 287 285 285 279 271 269
352 348 343 339 335 328 323 317 318 319 319 319 317 306 301 236 245 66 44 118 145 212 39 60 353 299 277 304 261 268 261 294 294 306 297 298 290 295 297 288 291 280 281 279 294
352 350 347 343 339 336 327 321 315 319 317 319 308 316 309 208 16 91 80 72 66 95 105 76 41 262 292 261 251 272 278 293 294 294 299 292 301 290 278 283 276 277 280 280 281
354 353 352 349 344 341 337 327 325 322 317 317 311 233 229 197 75 118 41 12 15 352 268 205 259 280 261 256 281 270 284 300 293 293 288 283 280 280 275 274 274 274 279 282 274
355 354 353 352 350 349 346 338 331 319 320 320 283 177 240 156 93 36 325 326 323 288 195 251 297 310 288 284 276 299 306 293 284 277 282 291 295 280 283 282 291 293 260 274 271
355 355 351 350 352 349 342 333 331 332 347 41 111 159 49 87 37 347 307 35 79 308 299 325 292 253 6 295 282 286 287 292 295 306 324 344 290 289 309 335 305 299 299 285 261
355 355 353 351 354 349 345 338 339 9 35 121 138 253 72 93 106 52 179 97 67 78 46 322 275 289 244 282 266 270 269 313 330 329 312 317 297 305 309 301 286 276 272 276 285
355 356 355 351 353 352 351 25 46 52 84 114 219 284 105 152 226 349 323 296 142 138 123 76 247 311 197 291 296 178 320 316 315 322 320 304 296 308 307 306 296 279 288 273 270
354 355 355 351 354 353 353 54 60 56 68 57 112 199 164 66 26 1 172 234 220 191 214 232 255 251 229 277 320 316 314 308 309 314 319 308 300 308 308 307 306 297 282 289 302
353 354 355 349 1 353 1 273 223 178 45 12 40 57 85 70 180 168 195 198 206 227 278 176 268 274 351 268 286 297 296 297 295 322 302 308 303 311 351 354 348 342 328 310 277
351 356 356 349 14 18 35 55 50 359 234 78 45 86 25 343 227 163 217 244 239 287 282 228 262 53 323 285 283 287 287 296 307 299 313 301 312 298 342 17 6 3 16 17 357
345 354 359 0 18 36 65 61 27 344 269 150 24 298 33 293 294 94 247 340 277 278 280 290 296 293 282 288 289 293 294 310 310 310 298 288 302 290 338 32 11 18 5 2 3
342 348 357 358 327 12 48 5 341 314 257 146 185 134 198 306 219 346 245 308 237 300 317 277 79 271 283 280 291 290 332 308 301 303 299 314 292 283 277 319 15 10 1 2 3
338 343 353 20 343 24 338 320 306 244 284 138 154 43 241 274 339 161 188 222 274 291 257 305 264 292 281 295 306 284 323 295 288 285 294 286 275 275 273 282 3 5 1 360 2
342 341 354 347 20 1 333 316 198 229 54 164 137 255 284 177 219 302 236 222 280 284 249 267 293 280 278 298 276 294 291 287 274 271 277 277 281 288 303 337 330 353 355 356 355
337 338 354 354 345 328 331 213 341 230 154 147 275 257 308 271 239 242 248 247 268 289 280 295 246 202 258 279 213 247 289 310 283 258 267 289 264 275 287 313 336 329 344 356 350
327 335 325 63 331 327 284 249 318 338 21 15 274 271 258 328 199 260 282 267 175 262 288 308 238 197 157 263 304 295 286 272 292 292 304 313 286 282 357 316 291 323 340 350 348
331 323 306 313 334 326 270 297 349 358 358 323 296 255 199 208 292 306 256 276 270 212 251 283 239 132 236 280 272 13 245 277 290 278 271 269 270 283 281 246 327 340 328 341 340
318 311 272 319 323 265 65 286 328 7 329 274 275 257 277 247 279 283 289 139 198 225 181 325 283 270 291 283 253 247 312 270 230 275 284 292 304 294 327 339 340 326 325 330 333
299 296 67 330 312 223 117 309 293 262 238 241 295 283 263 275 245 275 275 235 227 171 205 300 231 254 202 240 268 225 240 239 277 271 289 294 282 325 336 320 328 317 319 324 334
309 278 9 351 298 296 236 332 24 265 221 257 277 272 272 273 253 246 263 229 46 232 250 195 285 266 279 290 286 275 274 271 263 270 243 279 274 289 303 317 315 326 315 313 330
252 274 43 351 238 223 230 253 262 226 234 211 249 233 291 247 266 245 264 313 240 239 256 185 234 285 285 159 227 246 247 229 259 279 262 277 282 293 270 262 317 333 321 317 328
194 273 176 42 320 307 339 267 251 211 258 251 258 268 247 257 248 262 262 272 258 246 259 215 239 252 269 284 306 257 248 260 240 255 265 265 285 297 296 311 326 314 322 323 324
166 239 351 193 219 179 146 213 255 254 225 236 249 230 216 242 267 257 259 275 274 257 248 245 262 267 269 265 270 277 265 252 243 247 258 275 287 287 295 301 308 313 312 320 324
161 180 171 225 150 193 183 211 234 249 205 228 235 257 233 239 252 285 289 274 268 266 135 214 267 278 282 282 273 268 272 260 246 255 262 268 277 277 290 313 300 298 310 317 325
173 147 149 157 170 172 213 225 245 211 230 250 260 266 267 271 288 287 293 287 273 246 211 225 259 275 277 288 301 276 268 262 273 258 261 265 266 290 294 283 285 303 305 311 325